[[{"header":{"parameterUnit":"m.s-1","parameterCategory":1,"la1":30.2991,"la2":30.254,"lo1":-89.0895,"lo2":-89.0444,"dy":0.0017,"dx":0.0017,"nx":28,"ny":28,"refTime":"2024-12-13T09:00:00:Z","depth":0,"parameterNumber":2,"parameterNumberName":"U-component_of_WINDS"},"data":[0,0,0,0,0,0,0,0,0,0,0,0,0,0,0,0,0,0,0,0,0,0,0,0,0,0,0,0,0,0,0,0,0,0,0,0,0,0,0,0,0,0,0,0,0,0,0,0,0,0,0,0,0,0,0,0,0,0,-4.4461,-4.4462,0,-4.4613,-4.4615,-4.4617,-4.4621,-4.4619,-4.4618,-4.4616,-4.4772,-4.4778,-4.4784,0,0,0,0,0,0,0,0,0,0,0,0,0,-4.4175,-4.4181,-4.446,-4.4462,-4.4464,-4.4613,-4.4615,-4.4617,-4.4622,-4.4619,-4.4617,-4.4615,-4.477,-4.4777,-4.4784,0,0,0,0,0,0,0,0,0,0,0,0,0,-4.4311,-4.4182,-4.446,-4.4485,-4.4488,-4.4612,-4.4615,-4.4618,-4.4622,-4.4619,-4.4617,-4.4614,-4.4768,-4.4776,-4.4785,-4.4895,0,0,-4.4812,-4.4816,0,0,0,0,0,0,0,0,-4.4303,-4.4321,-4.4479,-4.4483,-4.4487,-4.4595,-4.4572,-4.4711,-4.4623,-4.4571,-4.4616,-4.4613,-4.4716,-4.4728,-4.4763,-4.4903,-4.4909,-4.4813,-4.4818,-4.4822,-4.4825,0,0,0,0,0,0,0,-4.4294,-4.4315,-4.4521,-4.4481,-4.4487,-4.4489,-4.4505,-4.4598,-4.4657,-4.4576,-4.4576,-4.4594,-4.4717,-4.4755,-4.4767,-4.4912,-4.4813,-4.482,-4.4826,-4.4829,-4.5152,-4.5155,0,0,0,0,0,0,-4.4279,-4.4307,-4.4516,-4.4525,-4.4387,-4.4496,-4.4514,-4.4564,-4.4656,-4.4668,-4.4596,-4.4594,-4.4741,-4.4757,-4.4772,-4.4909,-4.4822,-4.483,-4.4835,-4.5149,-4.5153,-4.5157,0,0,0,0,0,0,-4.4273,-4.4298,-4.451,-4.4417,-4.4444,-4.4504,-4.4559,-4.4568,-4.4605,-4.4672,-4.4683,-4.4624,-4.4739,-4.476,-4.4865,-4.4914,-4.4834,-4.4842,-4.5145,-4.515,-4.5155,-4.5182,0,0,0,0,0,0,-4.4265,-4.4296,-4.4337,-4.4417,-4.4449,-4.4599,-4.4562,-4.4573,-4.4621,-4.4619,-4.47,-4.4711,-4.4739,-4.4852,-4.4874,-4.4925,-4.4849,-4.5141,-4.5147,-4.5153,-4.5177,-4.5187,-4.5196,0,0,0,0,0,-4.4255,-4.4338,-4.4339,-4.4364,-4.4502,-4.4602,-4.462,-4.465,-4.4624,-4.4667,-4.4711,-4.4709,-4.4906,-4.4863,-4.4888,-4.4942,-4.5138,-4.5146,-4.5153,-4.5172,-4.5185,-4.5196,0,0,0,0,0,0,-4.4261,-4.4349,-4.4351,-4.4463,-4.4525,-4.4603,-4.4657,-4.4662,-4.4733,-4.4728,-4.4763,-4.4781,-4.4886,-4.4925,-4.4876,-4.5055,-4.5019,-4.5032,-4.5026,-4.5038,-4.5047,-4.5035,-4.4856,0,0,0,0,0,-4.4276,-4.435,-4.4423,-4.4514,-4.4545,-4.4596,-4.4641,-4.4659,-4.4725,-4.4751,-4.4802,-4.4867,-4.4944,-4.4993,-4.5067,-4.5183,-4.5202,-4.5233,-4.5243,-4.525,-4.526,-4.5327,-4.5342,-4.5181,-4.5181,-4.5181,0,0,-4.4306,-4.4363,-4.4407,-4.4517,-4.4567,-4.4644,-4.4618,-4.47,-4.4757,-4.4764,-4.4867,-4.4907,-4.4981,-4.5093,-4.5145,-4.5128,-4.5309,-4.526,-4.5265,-4.5271,-4.5336,-4.5351,-4.5364,-4.5186,-4.5185,-4.5184,0,0,-4.4401,-4.4451,-4.4534,-4.4586,-4.4663,-4.4697,-4.4717,-4.4795,-4.4822,-4.4926,-4.4933,-4.5003,-4.5134,-4.5187,-4.5231,-4.5351,-4.5352,-4.5374,-4.5423,-4.5488,-4.55,-4.5512,-4.5555,-4.557,-4.5384,-4.5385,-4.5385,0,-4.4428,-4.4543,-4.4575,-4.4658,-4.4707,-4.4718,-4.4803,-4.4852,-4.4949,-4.4983,-4.4964,-4.513,-4.5181,-4.5306,-4.5336,-4.5371,-4.5396,-4.5364,-4.5496,-4.5508,-4.5519,-4.5561,-4.5577,-4.5387,-4.5386,-4.5386,-4.5386,0,-4.4575,-4.4655,-4.4713,-4.4807,-4.4863,-4.4946,-4.4992,-4.5045,-4.5059,-4.5096,-4.5203,-4.5265,-4.5353,-4.5384,-4.5399,-4.5513,-4.5501,-4.5488,-4.5453,-4.5536,-4.5576,-4.5592,-4.539,-4.5389,-4.5388,-4.5388,0,0,-4.4674,-4.4788,-4.4809,-4.4853,-4.4941,-4.5004,-4.5089,-4.5176,-4.5221,-4.5289,-4.5362,-4.5474,-4.5465,-4.5515,-4.5536,-4.5593,-4.5685,-4.5574,-4.5576,-4.5593,-4.5817,-4.5824,-4.5842,-4.5687,-4.5691,-4.5693,-4.581,0,-4.4778,-4.4929,-4.4962,-4.5092,-4.5168,-4.5181,-4.5256,-4.5319,-4.5356,-4.5426,-4.5468,-4.5548,-4.5528,-4.5559,-4.5616,-4.5662,-4.573,-4.5654,-4.5756,-4.5759,-4.5736,-4.5863,-4.5871,-4.5979,-4.5826,-4.5829,-4.5831,0,-4.4918,-4.4991,-4.5129,-4.521,-4.5243,-4.5309,-4.5392,-4.5459,-4.5532,-4.5555,-4.5614,-4.563,-4.5721,-4.5682,-4.5808,-4.5755,-4.58,-4.5829,-4.5834,-4.5844,-4.5799,-4.5876,-4.6014,-4.6029,-4.5855,-4.5853,-4.5852,0,-4.4977,-4.511,-4.521,-4.5248,-4.5344,-4.5391,-4.5433,-4.5503,-4.5554,-4.5628,-4.5662,-4.5745,-4.5791,-4.5855,-4.5894,-4.5863,-4.6018,-4.5982,-4.6041,-4.604,-4.6071,-4.6069,-4.6218,-4.6101,-4.6101,-4.6101,-4.61,0,-4.5089,-4.5173,-4.5238,-4.5299,-4.5395,-4.5434,-4.5527,-4.557,-4.5633,-4.5704,-4.5722,-4.5788,-4.5836,-4.591,-4.5941,-4.6042,-4.6062,-4.6085,-4.6092,-4.6083,-4.608,-4.6111,-4.6104,-4.6105,-4.6104,-4.6103,-4.6103,0,-4.517,-4.5217,-4.5327,-4.5411,-4.5434,-4.5501,-4.5573,-4.5634,-4.5673,-4.5763,-4.5787,-4.5848,-4.5937,-4.5983,-4.6092,-4.6114,-4.6227,-4.623,-4.6202,-4.6205,-4.6261,-4.6255,-4.6434,-4.646,-4.6327,-4.6328,-4.6329,0,-4.5237,-4.5303,-4.5394,-4.5443,-4.5487,-4.5566,-4.5619,-4.5661,-4.5715,-4.5805,-4.5856,-4.5945,-4.6019,-4.6159,-4.6214,-4.6299,-4.6304,-4.6362,-4.6317,-4.6307,-4.6306,-4.6301,-4.6308,-4.6369,-4.637,-4.6371,-4.6372,0,-4.5353,-4.5374,-4.5449,-4.5534,-4.5597,-4.5665,-4.5733,-4.5773,-4.5826,-4.5887,-4.5978,-4.6035,-4.6149,-4.6238,-4.6327,-4.6372,-4.6382,-4.6386,-4.6404,-4.6395,-4.6376,-4.6387,-4.6223,-4.6381,-4.638,-4.638,-4.6379,-4.6379,-4.5429,-4.5489,-4.5563,-4.5647,-4.5703,-4.5767,-4.5829,-4.5878,-4.5954,-4.605,-4.6071,-4.6167,-4.6242,-4.6363,-4.6412,-4.6488,-4.6477,-4.6502,-4.6509,-4.6515,-4.6517,-4.6365,-4.6505,-4.6505,-4.6505,-4.6505,-4.6504,0,-4.5545,-4.5595,-4.5672,-4.5767,-4.5834,-4.5839,-4.5915,-4.5971,-4.6056,-4.6124,-4.6197,-4.6303,-4.6391,-4.6454,-4.6544,-4.6593,-4.66,-4.6615,-4.6612,-4.6622,-4.6522,-4.6498,-4.6609,-4.6609,-4.6609,-4.6608,-4.6608,-4.6608,-4.5613,-4.5715,-4.5745,-4.5876,-4.5925,-4.6019,-4.6063,-4.6123,-4.6178,-4.6296,-4.6369,-4.641,-4.6478,-4.6573,-4.6654,-4.6671,-4.6703,-4.6718,-4.6735,-4.664,-4.6629,-4.6618,-4.6595,-4.6725,-4.6725,-4.6828,-4.6829,-4.683]},{"header":{"parameterUnit":"m.s-1","parameterCategory":1,"la1":30.2991,"la2":30.254,"lo1":-89.0895,"lo2":-89.0444,"dy":0.0017,"dx":0.0017,"nx":28,"ny":28,"refTime":"2024-12-13T09:00:00:Z","depth":0,"parameterNumber":3,"parameterNumberName":"V-component_of_WINDS"},"data":[0,0,0,0,0,0,0,0,0,0,0,0,0,0,0,0,0,0,0,0,0,0,0,0,0,0,0,0,0,0,0,0,0,0,0,0,0,0,0,0,0,0,0,0,0,0,0,0,0,0,0,0,0,0,0,0,0,0,0.4349,0.4348,0,0.4201,0.4199,0.4197,0.4158,0.4159,0.416,0.4161,0.4006,0.4002,0.3997,0,0,0,0,0,0,0,0,0,0,0,0,0,0.4599,0.4594,0.435,0.4348,0.4346,0.4201,0.4199,0.4197,0.4158,0.4159,0.416,0.4161,0.4008,0.4002,0.3996,0,0,0,0,0,0,0,0,0,0,0,0,0,0.4474,0.4593,0.435,0.4309,0.4304,0.4201,0.4199,0.4196,0.4158,0.4159,0.416,0.4162,0.401,0.4003,0.3995,0.3923,0,0,0.3973,0.397,0,0,0,0,0,0,0,0,0.4481,0.4465,0.4317,0.4312,0.4306,0.4199,0.423,0.4105,0.4157,0.4213,0.4161,0.4162,0.4069,0.4057,0.4026,0.3915,0.3909,0.3972,0.3968,0.3964,0.3962,0,0,0,0,0,0,0,0.449,0.4471,0.4291,0.4315,0.4308,0.4298,0.4281,0.4206,0.4135,0.4208,0.4205,0.4188,0.4067,0.4033,0.4022,0.3907,0.3972,0.3966,0.3961,0.3958,0.373,0.3728,0,0,0,0,0,0,0.4506,0.4479,0.4295,0.4286,0.4399,0.4292,0.4274,0.4232,0.4136,0.4123,0.4187,0.4187,0.4045,0.4031,0.4017,0.3926,0.3964,0.3957,0.3953,0.3731,0.3729,0.3727,0,0,0,0,0,0,0.4511,0.449,0.4301,0.4382,0.4357,0.4286,0.424,0.4228,0.4195,0.412,0.4107,0.4166,0.4046,0.4027,0.3947,0.392,0.3954,0.3947,0.3733,0.3731,0.3728,0.3743,0,0,0,0,0,0,0.4519,0.4492,0.4464,0.4381,0.4353,0.4234,0.4238,0.4225,0.4183,0.4181,0.4097,0.4085,0.4046,0.3958,0.3939,0.391,0.3942,0.3735,0.3732,0.3729,0.3745,0.3741,0.3739,0,0,0,0,0,0.4528,0.4473,0.4463,0.4441,0.4316,0.4233,0.4216,0.4173,0.4181,0.4152,0.4104,0.4087,0.3926,0.395,0.3929,0.3897,0.3737,0.3733,0.3729,0.3746,0.3742,0.3739,0,0,0,0,0,0,0.4554,0.4462,0.4449,0.4366,0.4308,0.4226,0.4188,0.417,0.4108,0.4108,0.4057,0.4038,0.3961,0.3921,0.395,0.3822,0.3831,0.3823,0.3851,0.3847,0.3844,0.3855,0.3935,0,0,0,0,0,0.455,0.449,0.4413,0.4348,0.4319,0.4259,0.4221,0.4193,0.413,0.4105,0.4051,0.399,0.3925,0.3884,0.382,0.3739,0.372,0.3707,0.3704,0.3702,0.3695,0.365,0.3643,0.3715,0.3715,0.3716,0,0,0.4541,0.4484,0.4449,0.4351,0.4303,0.4242,0.4238,0.4174,0.4128,0.4095,0.4016,0.3974,0.3903,0.3822,0.3783,0.3786,0.3671,0.3697,0.3696,0.369,0.3645,0.3638,0.3632,0.3713,0.3713,0.3714,0,0,0.4494,0.4445,0.4385,0.4337,0.4264,0.4224,0.421,0.4132,0.4103,0.4023,0.3997,0.3942,0.3832,0.3782,0.3743,0.3679,0.3662,0.366,0.3644,0.36,0.3594,0.3589,0.3567,0.3559,0.3654,0.3654,0.3654,0,0.4493,0.4401,0.4357,0.4294,0.4252,0.422,0.4159,0.4114,0.4024,0.3996,0.4,0.3862,0.3812,0.3719,0.3704,0.3673,0.3655,0.3669,0.3599,0.3593,0.3587,0.3565,0.3557,0.3654,0.3654,0.3654,0.3654,0,0.4402,0.4339,0.4299,0.4214,0.4168,0.4106,0.4053,0.4011,0.3988,0.3948,0.3867,0.3806,0.373,0.3706,0.3682,0.361,0.3614,0.3609,0.3617,0.3582,0.356,0.3551,0.3654,0.3654,0.3654,0.3654,0,0,0.4366,0.4259,0.4245,0.4206,0.4124,0.4074,0.4011,0.3938,0.3903,0.3842,0.3789,0.3697,0.3693,0.3648,0.3618,0.358,0.3534,0.3579,0.3577,0.3573,0.3451,0.3455,0.3446,0.3522,0.352,0.3519,0.3457,0,0.431,0.4197,0.4156,0.4064,0.4005,0.3974,0.392,0.3863,0.3825,0.3769,0.3726,0.3662,0.3661,0.3634,0.3595,0.3548,0.3508,0.3551,0.3471,0.3469,0.349,0.3435,0.3438,0.3383,0.3448,0.3447,0.3446,0,0.4228,0.4167,0.4069,0.3995,0.3969,0.392,0.385,0.3797,0.3733,0.3708,0.3659,0.3631,0.3565,0.3578,0.3485,0.3515,0.348,0.3452,0.3449,0.3439,0.3455,0.3424,0.3364,0.3356,0.3432,0.3433,0.3434,0,0.4212,0.4106,0.4033,0.4001,0.3913,0.388,0.3841,0.3778,0.3737,0.3676,0.3648,0.358,0.3542,0.349,0.3445,0.3458,0.3357,0.3366,0.3334,0.3335,0.3313,0.3315,0.3247,0.3291,0.3291,0.3291,0.3291,0,0.4153,0.4094,0.4025,0.3981,0.3914,0.3868,0.3803,0.3763,0.3707,0.3654,0.3624,0.3574,0.3518,0.3462,0.3427,0.3356,0.3339,0.3316,0.3307,0.3319,0.3322,0.3295,0.3297,0.3289,0.3289,0.329,0.329,0,0.4124,0.4075,0.3995,0.3918,0.3897,0.3852,0.3786,0.3742,0.3702,0.3636,0.3618,0.3555,0.3488,0.3438,0.335,0.3326,0.325,0.3241,0.3272,0.3268,0.3239,0.3242,0.3151,0.3137,0.319,0.319,0.319,0,0.4089,0.4043,0.3962,0.3925,0.3887,0.3827,0.3785,0.3738,0.3696,0.362,0.3585,0.3515,0.3457,0.335,0.3296,0.3229,0.3218,0.3191,0.3208,0.3221,0.3218,0.3221,0.3217,0.3189,0.3188,0.3188,0.3188,0,0.4033,0.4011,0.3952,0.3885,0.3837,0.3781,0.3726,0.3697,0.364,0.3594,0.3525,0.348,0.3391,0.3322,0.3249,0.3209,0.3189,0.3183,0.3172,0.3183,0.3203,0.3192,0.3266,0.3185,0.3186,0.3186,0.3186,0.3186,0.3999,0.3958,0.3895,0.383,0.3784,0.3733,0.3688,0.3643,0.3585,0.3509,0.3485,0.3413,0.335,0.3252,0.3211,0.3154,0.3155,0.3139,0.3135,0.3131,0.3132,0.3213,0.3141,0.3141,0.3141,0.3141,0.3141,0,0.3942,0.39,0.3841,0.3765,0.3715,0.3701,0.3639,0.3597,0.3535,0.3479,0.3422,0.3343,0.3276,0.3219,0.3149,0.3115,0.3104,0.3098,0.31,0.3092,0.3135,0.3152,0.3109,0.3109,0.3109,0.3109,0.3109,0.3109,0.3906,0.3835,0.3806,0.3712,0.367,0.36,0.3566,0.3519,0.3474,0.3387,0.3332,0.3295,0.3238,0.3164,0.3103,0.3087,0.3063,0.306,0.3042,0.3085,0.3088,0.3092,0.3107,0.3055,0.3055,0.3003,0.3003,0.3002]}]]